CW6617 Weather Reports


time (UTC)temp
C
wind
direction
speed
KPH
gust
KPH
rain 1hr
cm
rain 24hr
cm
rain mn
cm
humidity
%
barometer
mb
20260903024703 18 187 6.4 11.3 0.00 0.15 0.00 92 1016.2
20260903024205 18 181 6.4 11.3 0.00 0.15 0.00 92 1016.3
20260903023704 18 173 8.0 20.9 0.00 0.15 0.00 92 1016.4
20260903023204 18 176 6.4 19.3 0.00 0.15 0.00 92 1016.4
20260903021203 18 181 8.0 20.9 0.00 0.15 0.00 91 1016.4
20260903020704 18 185 12.9 20.9 0.00 0.15 0.00 91 1016.5
20260903020204 18 186 4.8 16.1 0.00 0.15 0.00 91 1016.5
20260903014703 18 186 9.7 20.9 0.00 0.15 0.00 92 1016.5
20260903014204 18 167 9.7 16.1 0.00 0.15 0.00 92 1016.5
20260903013703 18 173 14.5 22.5 0.00 0.15 0.00 92 1016.3
20260903011704 18 180 9.7 14.5 0.00 0.15 0.00 91 1016.7
20260903010703 18 179 6.4 14.5 0.00 0.15 0.00 92 1016.7
20260903010204 18 179 3.2 25.7 0.00 0.15 0.00 92 1016.7
20260903004704 18 175 4.8 11.3 0.00 0.15 0.00 92 1016.8
20260903004204 18 171 9.7 16.1 0.00 0.15 0.00 92 1016.9
20260903003704 18 170 8.0 12.9 0.00 0.15 0.00 92 1017.1
20260903001704 18 185 6.4 20.9 0.00 0.15 0.00 92 1017.1
20260903000705 18 170 8.0 11.3 0.00 0.15 0.00 92 1017.0
20260903000204 18 176 4.8 19.3 0.00 0.15 0.00 92 1017.0
20260902234704 18 196 4.8 12.9 0.00 0.15 0.00 92 1017.2
20260902234204 18 166 6.4 12.9 0.00 0.15 0.00 92 1017.0
20260902233704 18 194 8.0 11.3 0.00 0.15 0.00 92 1017.0
20260902233204 18 166 8.0 19.3 0.00 0.15 0.00 92 1016.9
20260902231704 18 169 8.0 14.5 0.00 0.15 0.00 92 1017.2
20260902230704 18 170 8.0 19.3 0.00 0.15 0.00 92 1017.2
20260902230204 18 172 9.7 20.9 0.00 0.15 0.00 92 1017.3
20260902224704 18 168 11.3 20.9 0.00 0.15 0.15 92 1017.1
20260902224204 18 182 8.0 12.9 0.00 0.15 0.15 92 1017.3
20260902223704 18 187 9.7 19.3 0.00 0.15 0.15 92 1017.4
20260902223203 18 177 9.7 24.1 0.00 0.15 0.15 92 1017.5
20260902221704 18 171 8.0 12.9 0.00 0.15 0.15 92 1017.5
20260902221203 18 175 6.4 14.5 0.00 0.15 0.15 92 1017.7
20260902220704 18 171 4.8 14.5 0.00 0.15 0.15 93 1017.5
20260902220205 18 181 6.4 16.1 0.00 0.15 0.15 93 1017.4
20260902214703 18 182 6.4 11.3 0.00 0.15 0.15 93 1016.9
20260902214204 18 166 8.0 14.5 0.00 0.15 0.15 93 1016.9
20260902213704 18 170 6.4 16.1 0.00 0.15 0.15 93 1017.1
20260902213203 18 190 12.9 20.9 0.00 0.15 0.15 93 1017.0
20260902211204 18 190 8.0 14.5 0.00 0.15 0.15 93 1017.0
20260902210704 18 186 11.3 19.3 0.00 0.15 0.15 93 1017.0
20260902210204 18 182 9.7 20.9 0.00 0.15 0.15 93 1017.0
20260902204705 18 187 9.7 16.1 0.00 0.15 0.15 92 1017.0
20260902204204 18 206 8.0 14.5 0.00 0.15 0.15 92 1017.1
20260902203703 18 189 6.4 14.5 0.00 0.15 0.15 92 1017.1
20260902203203 18 182 8.0 19.3 0.00 0.15 0.15 92 1017.1
20260902201703 18 178 9.7 19.3 0.00 0.15 0.15 92 1016.9
20260902201204 18 174 9.7 20.9 0.00 0.15 0.15 92 1016.9
20260902200203 18 180 9.7 20.9 0.00 0.15 0.15 92 1016.9
20260902194203 18 181 9.7 20.9 0.00 0.15 0.15 93 1016.8
20260902193703 18 181 8.0 14.5 0.00 0.15 0.15 93 1017.0
20260902193204 18 184 9.7 20.9 0.00 0.15 0.15 93 1016.9
20260902191703 18 173 14.5 24.1 0.00 0.15 0.15 93 1016.9
20260902191203 18 176 12.9 20.9 0.00 0.15 0.15 93 1016.8
20260902190203 18 172 11.3 20.9 0.00 0.15 0.15 93 1016.7
20260902184704 18 178 8.0 14.5 0.00 0.15 0.15 93 1016.7
20260902184205 18 181 8.0 14.5 0.00 0.15 0.15 93 1016.8
20260902183704 18 192 9.7 20.9 0.00 0.15 0.15 93 1016.7
20260902183203 18 168 11.3 19.3 0.00 0.15 0.15 94 1016.7
20260902181704 18 181 9.7 19.3 0.00 0.15 0.15 93 1016.7
20260902180704 18 176 8.0 14.5 0.00 0.15 0.15 93 1016.9
20260902174203 18 184 9.7 19.3 0.00 0.15 0.15 92 1017.0
20260902173704 18 189 11.3 19.3 0.00 0.15 0.15 92 1017.1
20260902173203 18 179 9.7 25.7 0.00 0.15 0.15 92 1017.0
20260902171704 18 169 6.4 19.3 0.00 0.15 0.15 92 1017.1
20260902171205 18 179 11.3 20.9 0.00 0.15 0.15 92 1017.1
20260902170703 18 170 11.3 19.3 0.00 0.15 0.15 92 1017.0
20260902170204 18 176 11.3 20.9 0.00 0.15 0.15 92 1017.0
20260902164704 18 176 14.5 24.1 0.00 0.15 0.15 91 1017.0
20260902164204 18 178 12.9 25.7 0.00 0.15 0.15 91 1017.0
20260902163204 18 182 12.9 22.5 0.00 0.15 0.15 90 1017.2
20260902161704 18 169 14.5 20.9 0.00 0.15 0.15 90 1017.2
20260902161204 18 178 14.5 20.9 0.00 0.15 0.15 89 1017.3
20260902160704 18 176 16.1 33.8 0.00 0.15 0.15 89 1017.3
20260902160203 18 164 16.1 29.0 0.00 0.15 0.15 89 1017.3
20260902154703 18 166 20.9 25.7 0.00 0.15 0.15 88 1017.5
20260902154204 18 171 22.5 32.2 0.00 0.15 0.15 88 1017.4
20260902153703 18 179 19.3 25.7 0.00 0.15 0.15 88 1017.5
20260902153204 18 183 16.1 32.2 0.00 0.15 0.15 88 1017.7
20260902151704 18 168 14.5 25.7 0.00 0.15 0.15 88 1017.8
20260902151203 18 166 16.1 24.1 0.00 0.15 0.15 88 1017.7
20260902150705 18 170 14.5 25.7 0.00 0.15 0.15 88 1017.7
20260902150204 18 169 20.9 33.8 0.00 0.15 0.15 88 1017.8
20260902144704 18 189 16.1 33.8 0.00 0.15 0.15 84 1018.0
20260902144204 19 171 19.3 35.4 0.00 0.15 0.15 83 1018.0
20260902143705 19 178 19.3 25.7 0.00 0.15 0.15 80 1017.9
20260902143204 19 178 16.1 29.0 0.00 0.15 0.15 80 1018.1
20260902141704 19 177 11.3 32.2 0.00 0.15 0.15 78 1018.1
20260902140704 19 182 19.3 33.8 0.00 0.15 0.15 78 1018.1
20260902134704 19 177 11.3 20.9 0.00 0.15 0.15 78 1018.2
20260902134203 19 171 19.3 29.0 0.00 0.15 0.15 78 1018.2
20260902133704 19 181 14.5 20.9 0.00 0.15 0.15 77 1018.3
20260902133203 19 178 14.5 29.0 0.00 0.15 0.15 77 1018.4
20260902131704 19 175 17.7 35.4 0.00 0.15 0.15 76 1018.3
20260902131204 19 182 17.7 24.1 0.00 0.15 0.15 76 1018.5
20260902130704 19 196 11.3 24.1 0.00 0.15 0.15 75 1018.5
20260902130204 19 169 16.1 32.2 0.00 0.15 0.15 75 1018.4
20260902124703 18 202 8.0 24.1 0.00 0.15 0.15 76 1018.5
20260902123704 18 182 9.7 27.4 0.00 0.15 0.15 76 1018.6
20260902123204 18 166 19.3 33.8 0.00 0.15 0.15 76 1018.6
20260902121204 18 175 16.1 25.7 0.00 0.15 0.15 78 1018.7
20260902120204 18 182 16.1 29.0 0.00 0.15 0.15 78 1018.8
20260902114703 18 186 14.5 25.7 0.00 0.15 0.15 81 1018.9
20260902113704 18 171 14.5 24.1 0.03 0.15 0.15 85 1018.9
20260902113204 18 174 17.7 35.4 0.03 0.15 0.15 85 1018.9
20260902111704 17 183 12.9 20.9 0.03 0.15 0.15 88 1019.1
20260902111204 17 174 16.1 22.5 0.03 0.15 0.15 89 1019.3
20260902110205 17 178 12.9 27.4 0.03 0.15 0.15 90 1019.3
20260902104704 17 169 14.5 22.5 0.03 0.15 0.15 92 1019.3
20260902104204 18 177 8.0 12.9 0.00 0.13 0.13 92 1019.4
20260902103704 18 170 9.7 20.9 0.03 0.13 0.13 92 1019.4
20260902103204 17 166 11.3 19.3 0.03 0.13 0.13 93 1019.6
20260902101204 17 172 8.0 14.5 0.13 0.13 0.13 93 1019.7
20260902100704 17 179 4.8 9.7 0.13 0.13 0.13 92 1019.7
20260902100204 17 179 3.2 14.5 0.13 0.13 0.13 92 1019.7
20260902094703 17 168 4.8 8.0 0.13 0.13 0.13 92 1019.8
20260902094204 17 168 3.2 9.7 0.13 0.13 0.13 91 1019.8
20260902093704 17 177 1.6 4.8 0.10 0.10 0.10 90 1019.8
20260902093203 17 175 1.6 4.8 0.10 0.10 0.10 89 1019.9
20260902091703 17 177 3.2 11.3 0.00 0.00 0.00 87 1020.0
20260902091204 17 175 3.2 9.7 0.00 0.00 0.00 87 1019.9
20260902090704 17 172 1.6 12.9 0.00 0.00 0.00 87 1020.0
20260902090205 17 180 6.4 19.3 0.00 0.00 0.00 87 1020.1
20260902084704 17 173 4.8 12.9 0.00 0.00 0.00 86 1019.7
20260902084205 17 184 8.0 11.3 0.00 0.00 0.00 86 1019.7
20260902083704 17 172 9.7 14.5 0.00 0.00 0.00 86 1019.6
20260902083204 17 170 9.7 20.9 0.00 0.00 0.00 86 1019.7
20260902081704 17 171 6.4 16.1 0.00 0.00 0.00 87 1019.7
20260902081204 17 170 4.8 11.3 0.00 0.00 0.00 87 1019.6
20260902074705 17 166 8.0 14.5 0.00 0.00 0.00 89 1019.4
20260902074204 17 180 4.8 9.7 0.00 0.00 0.00 89 1019.5
20260902073204 16 181 4.8 9.7 0.00 0.00 0.00 90 1019.4
20260902071703 16 167 4.8 11.3 0.00 0.00 0.00 91 1019.4
20260902071204 16 168 3.2 11.3 0.00 0.00 0.00 91 1019.3
20260902070703 16 170 3.2 9.7 0.00 0.00 0.00 91 1019.3
20260902070204 16 170 4.8 9.7 0.00 0.00 0.00 91 1019.4
20260902064703 16 182 3.2 9.7 0.00 0.00 0.00 91 1019.2
20260902063204 15 172 0.0 0.0 0.00 0.00 0.00 91 1019.3
20260902061204 15 171 0.0 0.0 0.00 0.00 0.00 90 1019.1
20260902060706 15 171 0.0 0.0 0.00 0.00 0.00 90 1019.1
20260902060204 15 171 0.0 0.0 0.00 0.00 0.00 90 1019.1
20260902054704 15 171 0.0 0.0 0.00 0.00 0.00 90 1019.2
20260902054204 15 171 0.0 0.0 0.00 0.00 0.00 89 1019.3
20260902053704 15 171 0.0 0.0 0.00 0.00 0.00 89 1019.2
20260902053204 15 171 0.0 0.0 0.00 0.00 0.00 89 1019.2
20260902050703 15 172 0.0 0.0 0.00 0.00 0.00 89 1019.1
20260902050204 15 172 0.0 0.0 0.00 0.00 0.00 88 1019.1
20260902044704 15 171 0.0 0.0 0.00 0.00 0.00 88 1019.1
20260902044204 15 171 0.0 0.0 0.00 0.00 0.00 88 1019.1
20260902043704 15 172 0.0 0.0 0.00 0.00 0.00 88 1019.1
20260902043204 15 172 0.0 0.0 0.00 0.00 0.00 88 1019.2
20260902041704 15 172 0.0 0.0 0.00 0.00 0.00 88 1019.3
20260902040703 15 172 0.0 0.0 0.00 0.00 0.00 88 1019.4
20260902034704 15 171 0.0 0.0 0.00 0.00 0.00 87 1019.2
20260902034203 15 171 0.0 0.0 0.00 0.00 0.00 87 1019.2
20260902033703 15 171 0.0 1.6 0.00 0.00 0.00 87 1019.4
20260902033203 15 172 1.6 8.0 0.00 0.00 0.00 87 1019.3
20260902031703 15 172 1.6 3.2 0.00 0.00 0.00 86 1019.3
20260902031204 15 172 3.2 4.8 0.00 0.00 0.00 87 1019.3
20260902030703 15 172 3.2 8.0 0.00 0.00 0.00 87 1019.3
20260902030204 15 171 4.8 9.7 0.00 0.00 0.00 86 1019.3